#timestamp,LO_Frequency,Hit,StdDev 
1508259615.8,286046996.8,N
1508259635.6,286046996.6,N
1508259655.4,286046997.9,N
1508259675.3,286046995.4,Y
1508259695.1,286046997.8,P
1508259715.9,286046997.6,N
1508259735.7,286046997.6,N
1508259755.5,286046995.2,Y
1508259775.4,286046997.4,P
1508259795.2,286046995.4,P
1508259815.0,286046997.9,N
1508259815.9,286046997.9,N
1508259835.8,286046997.5,N
1508259855.6,286046996.6,Y
1508259875.5,286046998.5,P
1508259895.3,286047002.4,P
1508259915.1,286047002.7,N
1508259935.9,286047002.5,N
1508259955.7,286047002.2,N
1508259975.5,286047002.5,N
1508259995.4,286047000.2,N
1508260015.2,286047002.8,N
1508260035.1,286047002.8,N
1508260036.0,286047002.8,N
1508260055.8,286047000.9,N
1508260075.6,286046998.4,N
1508260095.5,286046999.3,N
1508260115.3,286046998.9,N
1508260135.1,286046998.4,N
1508260155.9,286046999.1,N
1508260175.7,286047001.1,N
1508260195.6,286046999.9,N
1508260215.4,286047000.9,N
1508260235.2,286046998.7,N
1508260255.1,286046999.2,N
1508260256.0,286046999.2,N
1508260275.8,286046999.1,N
1508260295.6,286046999.4,N
1508260315.5,286046999.0,N
1508260335.3,286046999.2,N
1508260355.2,286046998.7,N
1508260375.9,286046999.2,N
1508260395.7,286046999.6,N
1508260415.6,286046997.0,N
1508260435.4,286046997.9,N
1508260455.2,286046995.3,N
1508260475.1,286046997.1,N
1508260476.0,286046997.1,N
1508260495.8,286046997.7,N
1508260515.7,286046997.1,N
1508260535.5,286046996.5,N
1508260555.3,286046996.8,N
1508260575.2,286046995.4,N
1508260595.0,286046995.7,N
1508260595.9,286046995.7,N
1508260615.7,286046995.5,N
1508260635.6,286046996.2,N
1508260655.4,286046998.0,N
1508260675.3,286046997.3,N
1508260695.1,286046997.7,N
1508260696.0,286046997.7,N
1508260715.8,286046997.4,N
1508260735.7,286046995.0,Y
1508260755.5,286046999.1,P
1508260775.4,286046998.7,N
1508260795.2,286046998.5,N
1508260815.0,286046998.3,Y
1508260815.9,286046998.3,P
1508260835.8,286046999.7,P
1508260855.6,286047002.7,P
1508260875.4,286047000.9,N
1508260895.3,286046999.9,N
1508260915.1,286047000.4,N
1508260935.9,286046998.2,N
1508260955.7,286046998.3,N
1508260975.5,286047001.2,N
1508260995.4,286047000.6,N
1508261015.2,286046999.1,N
1508261035.0,286046997.7,N
1508261035.9,286046997.7,N
1508261055.8,286046997.0,N
1508261075.6,286046997.6,N
1508261095.5,286046997.4,N
1508261115.3,286046997.8,N
1508261135.1,286046996.5,N
1508261155.9,286046997.1,N
1508261175.7,286046997.5,N
1508261195.5,286046997.8,N
1508261215.4,286046999.5,N
1508261235.2,286046998.8,N
1508261255.1,286046998.3,N
1508261256.0,286046998.3,N
1508261275.8,286046998.4,N
1508261295.6,286046998.1,N
1508261315.5,286047001.0,N
1508261335.3,286047000.8,N
1508261355.1,286046998.4,N
1508261375.9,286047000.7,N
1508261395.7,286047000.6,N
1508261415.6,286047000.0,N
1508261435.4,286047002.6,N
1508261455.2,286047002.7,N
1508261475.1,286047000.1,N
1508261476.0,286047000.1,N
1508261495.8,286046999.7,N
1508261515.7,286047002.3,N
1508261535.5,286047002.2,N
1508261555.3,286047002.4,N
1508261575.2,286047002.5,N
1508261595.9,286047002.0,N
1508261615.7,286047003.1,N
1508261635.6,286047003.5,N
1508261655.4,286047004.0,N
1508261675.2,286047003.0,N
1508261695.1,286047003.0,N
1508261696.0,286047003.0,N
1508261715.8,286047006.0,Y
1508261735.7,286047001.3,P
1508261755.5,286047000.1,N
1508261775.3,286047002.6,P
1508261795.2,286047000.5,N
1508261815.0,286046999.8,N
1508261815.9,286046999.8,N
1508261835.8,286047002.8,N
1508261855.6,286047000.1,N
1508261875.4,286047002.2,N
1508261895.3,286047002.8,N
1508261915.1,286047002.7,N
1508261935.9,286047003.7,Y
1508261955.7,286047002.4,P
1508261975.5,286047001.5,N
1508261995.4,286047001.6,P
1508262015.2,286046999.9,N
1508262035.0,286047000.2,N
1508262035.9,286047000.2,N
1508262055.8,286046999.8,N
1508262075.6,286047000.2,N
1508262095.5,286047001.9,N
1508262115.3,286047004.0,Y
1508262135.1,286047002.2,P
1508262155.9,286047002.7,P
1508262175.7,286047002.3,N
1508262195.6,286047000.2,N
1508262215.4,286046999.8,N
1508262235.2,286047002.6,N
1508262255.1,286047001.4,N
1508262256.0,286047001.4,N
1508262275.8,286047002.8,N
1508262295.6,286047000.5,N
1508262315.5,286047002.2,N
1508262335.3,286047002.3,N
1508262355.2,286047002.8,N
1508262375.9,286046999.7,N
1508262395.7,286047000.4,N
1508262415.6,286047000.3,N
1508262435.4,286047000.2,N
1508262455.2,286047000.7,N
1508262475.1,286047000.4,N
1508262476.0,286047000.4,N
1508262495.8,286047002.1,N
1508262515.7,286047002.4,N
1508262535.5,286047002.2,N
1508262555.3,286047002.5,N
1508262575.2,286047002.6,N
1508262595.0,286047000.2,N
1508262595.9,286047000.2,N
1508262615.7,286046999.8,N
1508262635.6,286047002.7,N
1508262655.4,286047000.4,N
1508262675.3,286047000.6,N
1508262695.1,286047000.3,N
1508262715.8,286047000.7,N
1508262735.7,286047002.6,N
1508262755.5,286047000.2,N
1508262775.4,286047002.3,N
1508262795.2,286047002.2,N
1508262815.0,286047003.9,Y
1508262816.0,286047003.9,P
1508262835.8,286046999.9,N
1508262855.6,286046999.7,N
1508262875.5,286047000.1,N
1508262895.3,286047001.9,N
1508262915.2,286047001.3,N
1508262935.9,286047002.1,N
1508262955.7,286047002.7,N
1508262975.6,286046999.7,N
1508262995.4,286047000.4,N
1508263015.3,286047001.7,N
1508263035.1,286047001.9,N
1508263036.0,286047001.9,N
1508263055.8,286046999.8,N
1508263075.7,286047002.5,N
1508263095.5,286047001.6,N
1508263115.4,286047002.3,N
1508263135.2,286047004.0,Y
1508263155.0,286047000.5,P
1508263155.9,286047000.5,N
1508263175.8,286047000.9,N
1508263195.6,286047000.2,N
